Location: The Saddle
(36.8333°N, 80.3417°W)
Time: 07:39:20
(UTC-05:00)

Vanguard 2 Rocket - Pass Details

Date: 15 December 2023
Orbit: 555 x 3309 km, 32.9° (Epoch: 02 March)

Event Time Altitude Azimuth Distance (km) Brightness Sun altitude
Rises 08:46:00 0° 178° (S) 3,860 10.8 12.1°
Reaches altitude 10° 08:50:39 10° 149° (SSE) 3,440 11.7 12.8°
Maximum altitude 08:53:56 12° 127° (SE) 3,627 12.9 13.3°
Drops below altitude 10° 08:57:47 10° 106° (ESE) 4,245 11.6 13.8°
Sets 09:05:23 0° 83° (E) 6,006 11.6 14.9°
